Flag for Germany Weather past 2 weeks in Rheine, North Rhine-Westphalia, Germany

Now
37 °F

Chilly.


Feels Like: 35 °F
Forecast: 44 / 50 °F
Wind: 3 mph from Southwest

Location: Rheine-Bentlage

Current Time: Mar 28, 2015 at 3:32:37 AM

Latest Report: Mar 28, 2015 at 2:20 AM


Visibility: N/A

Pressure: 30.18 "Hg

Humidity: 93%

Dew point: 36 °F

Location of RheineLocation

Historic Weather in Rheine — Graph

°F

Rheine temperature yesterday

Maximum temperature yesterday: 46 °F (at 1:20 PM)
Minimum temperature yesterday: 41 °F (at 7:20 AM)
Average temperature yesterday: 44 °F

Past Weeks' High & Low Weather Summary

 TemperatureHumidityPressure
High61 °F (Mar 17, 3:20 PM)100% (Mar 17, 4:20 AM)30.42 "Hg (Mar 17, 4:20 AM)
Low28 °F (Mar 20, 5:20 AM)47% (Mar 24, 2:20 PM)29.65 "Hg (Mar 25, 4:20 AM)
Average42 °F80%30.13 "Hg
* Reported Mar 13 1:20 AM — Mar 28 1:20 AM, Rheine, Weather by CustomWeather, © 2015

Note: Actual official high and low records may vary slightly from our data, if they occured in-between our weather recording intervals... More about our weather records

Advertising

Rheine weather history for previous 24 hours

 ConditionsComfort  
Time TempWeatherWind HumidityBarometerVisibility
1:20 AM
Sat, Mar 28
39 °FChilly.3 mph93%30.18 "HgN/A
12:20 AM41 °FQuite cool.2 mph93%30.18 "HgN/A
11:20 PM
Fri, Mar 27
43 °FQuite cool.6 mph87%30.18 "HgN/A
10:20 PM43 °FQuite cool.6 mph87%30.18 "HgN/A
9:20 PM43 °FQuite cool.7 mph81%30.15 "HgN/A
8:20 PM45 °FQuite cool.9 mph76%30.15 "HgN/A
7:20 PM45 °FQuite cool.6 mph76%30.12 "HgN/A
6:20 PM45 °FQuite cool.9 mph71%30.09 "HgN/A
5:20 PM45 °FQuite cool.10 mph76%30.07 "HgN/A
4:20 PM46 °FCool.15 mph71%30.04 "HgN/A
3:20 PM45 °FQuite cool.17 mph81%30.01 "HgN/A
2:20 PM46 °FCool.15 mph76%30.01 "HgN/A
1:20 PM46 °FCool.17 mph71%29.95 "HgN/A
12:20 PM45 °FSprinkles. Broken clouds.17 mph76%29.95 "HgN/A
11:20 AM45 °FPartly sunny.13 mph81%29.92 "HgN/A
10:20 AM43 °FRain showers. Broken clouds.12 mph87%29.89 "Hg3 mi
9:51 AM43 °FSprinkles. Broken clouds.14 mph81%29.89 "HgN/A
9:20 AM43 °FPartly sunny.14 mph87%29.86 "HgN/A
8:20 AM41 °FBroken clouds.9 mph93%29.86 "HgN/A
7:20 AM41 °FPartly sunny.9 mph87%29.83 "HgN/A
6:20 AM43 °FSprinkles. Partly sunny.9 mph87%29.80 "Hg5 mi
5:20 AM43 °FPassing clouds.10 mph87%29.80 "HgN/A
4:20 AM43 °FQuite cool.9 mph87%29.77 "HgN/A
3:20 AM43 °FQuite cool.7 mph87%29.77 "HgN/A
Weather by CustomWeather, © 2015

See weather overviewHow to use our weather pages